GW1059 Weather Reports


time (UTC)temp
C
wind
direction
speed
KPH
gust
KPH
rain 1hr
cm
rain 24hr
cm
rain mn
cm
humidity
%
barometer
mb
20260906135116 20 175 8.0 14.5 0.00 0.00 0.00 94 1020.8
20260906134612 20 164 9.7 16.1 0.00 0.00 0.00 94 1021.1
20260906134107 20 178 9.7 16.1 0.00 0.00 0.00 94 1020.8
20260906133603 20 151 9.7 20.9 0.00 0.00 0.00 94 1021.1
20260906133057 20 154 9.7 20.9 0.00 0.00 0.00 94 1020.8
20260906132552 20 157 6.4 17.7 0.00 0.00 0.00 94 1020.8
20260906132048 20 157 6.4 12.9 0.00 0.00 0.00 95 1020.8
20260906131543 20 138 6.4 9.7 0.00 0.00 0.00 96 1020.4
20260906131038 19 163 4.8 9.7 0.00 0.00 0.00 96 1020.4
20260906130538 19 157 4.8 9.7 0.00 0.00 0.00 97 1020.1
20260906130033 19 137 3.2 6.4 0.00 0.00 0.00 97 1020.1
20260906125530 18 104 1.6 4.8 0.00 0.00 0.00 97 1020.4
20260906125025 18 90 3.2 6.4 0.00 0.00 0.00 97 1020.4
20260906124520 18 79 3.2 9.7 0.00 0.00 0.00 97 1020.4
20260906124015 18 74 3.2 9.7 0.00 0.00 0.00 96 1020.4
20260906123514 18 65 3.2 8.0 0.00 0.00 0.00 96 1020.4
20260906123010 18 149 3.2 8.0 0.00 0.00 0.00 96 1020.1
20260906122503 18 155 3.2 4.8 0.00 0.00 0.00 96 1020.1
20260906122000 18 155 3.2 8.0 0.00 0.00 0.00 96 1020.1
20260906121456 18 156 4.8 11.3 0.00 0.00 0.00 96 1020.1
20260906120952 18 155 4.8 11.3 0.00 0.00 0.00 96 1020.1
20260906120447 18 141 3.2 6.4 0.00 0.00 0.00 96 1020.1
20260906115943 18 119 3.2 9.7 0.00 0.00 0.00 96 1020.1
20260906115439 18 121 3.2 9.7 0.00 0.00 0.00 96 1020.1
20260906114938 18 87 3.2 6.4 0.00 0.00 0.00 96 1020.1
20260906114433 18 107 3.2 4.8 0.00 0.00 0.00 96 1020.1
20260906113929 18 107 3.2 9.7 0.00 0.00 0.00 96 1020.1
20260906113427 18 107 4.8 9.7 0.00 0.00 0.00 96 1020.1
20260906112923 18 60 4.8 9.7 0.00 0.00 0.00 96 1020.1
20260906112418 18 101 3.2 9.7 0.00 0.00 0.00 96 1020.1
20260906111914 18 92 3.2 6.4 0.00 0.00 0.00 95 1019.8
20260906111413 18 84 3.2 6.4 0.00 0.00 0.00 95 1019.8
20260906110908 18 81 3.2 6.4 0.00 0.00 0.00 95 1019.8
20260906110403 18 80 3.2 8.0 0.00 0.00 0.00 96 1019.8
20260906105903 18 79 3.2 8.0 0.00 0.00 0.00 96 1020.1
20260906105358 18 78 3.2 6.4 0.00 0.00 0.00 96 1020.1
20260906104854 18 105 3.2 6.4 0.00 0.00 0.00 96 1020.1
20260906104353 18 105 3.2 4.8 0.00 0.00 0.00 96 1020.1
20260906103852 18 107 3.2 4.8 0.00 0.00 0.00 96 1019.8
20260906103350 18 109 3.2 6.4 0.00 0.00 0.00 96 1019.8
20260906102846 18 109 3.2 6.4 0.00 0.00 0.00 96 1019.8
20260906102345 18 117 3.2 6.4 0.00 0.00 0.00 95 1019.4
20260906101840 18 109 4.8 6.4 0.00 0.00 0.00 95 1019.4
20260906101335 18 109 4.8 6.4 0.00 0.00 0.00 95 1019.4
20260906100831 18 123 3.2 6.4 0.00 0.00 0.00 95 1019.4
20260906100330 18 123 1.6 4.8 0.00 0.00 0.00 95 1019.4
20260906095825 18 123 0.0 3.2 0.00 0.00 0.00 95 1019.4
20260906095321 19 123 0.0 1.6 0.00 0.00 0.00 94 1019.4
20260906094820 19 123 1.6 4.8 0.00 0.00 0.00 94 1019.4
20260906094315 19 123 1.6 4.8 0.00 0.00 0.00 94 1019.1
20260906093811 19 123 1.6 3.2 0.00 0.00 0.00 94 1019.1
20260906093306 19 123 1.6 4.8 0.00 0.00 0.00 94 1019.1
20260906092755 19 123 1.6 4.8 0.00 0.00 0.00 94 1019.4
20260906092250 19 123 1.6 3.2 0.00 0.00 0.00 94 1019.1
20260906091746 19 123 0.0 3.2 0.00 0.00 0.00 94 1019.4
20260906091242 19 123 1.6 3.2 0.00 0.00 0.00 94 1019.1
20260906090738 19 123 3.2 6.4 0.00 0.00 0.00 94 1019.1
20260906090237 19 123 3.2 6.4 0.00 0.00 0.00 94 1019.1
20260906085736 19 127 3.2 4.8 0.00 0.00 0.00 94 1019.1
20260906085236 19 128 4.8 11.3 0.00 0.00 0.00 94 1019.1
20260906084731 20 134 6.4 14.5 0.00 0.00 0.00 94 1018.7
20260906084231 20 146 6.4 14.5 0.00 0.00 0.00 94 1018.7
20260906083725 20 125 4.8 9.7 0.00 0.00 0.00 94 1018.7
20260906083221 20 132 3.2 8.0 0.00 0.00 0.00 93 1018.7
20260906082716 20 136 3.2 6.4 0.00 0.00 0.00 93 1019.1
20260906082211 20 135 3.2 6.4 0.00 0.00 0.00 93 1019.1
20260906081707 20 134 3.2 6.4 0.00 0.00 0.00 93 1019.1
20260906081202 20 133 3.2 6.4 0.00 0.00 0.00 93 1019.1
20260906080659 20 123 4.8 6.4 0.00 0.00 0.00 93 1019.1
20260906080154 20 114 3.2 6.4 0.00 0.00 0.00 93 1019.1
20260906075654 20 113 3.2 6.4 0.00 0.00 0.00 93 1019.1
20260906075149 20 112 4.8 9.7 0.00 0.00 0.00 93 1019.1
20260906074644 20 111 6.4 11.3 0.00 0.00 0.00 93 1019.4
20260906074143 20 111 6.4 12.9 0.00 0.00 0.00 93 1019.4
20260906073638 20 117 6.4 12.9 0.00 0.00 0.00 93 1019.1
20260906073134 20 115 4.8 9.7 0.00 0.00 0.00 93 1019.1
20260906072628 20 161 4.8 8.0 0.00 0.00 0.00 92 1019.1
20260906072124 20 148 4.8 8.0 0.00 0.00 0.00 92 1019.1
20260906071620 20 151 4.8 9.7 0.00 0.00 0.00 92 1019.4
20260906071115 20 151 4.8 9.7 0.00 0.00 0.00 92 1019.4
20260906070612 20 138 3.2 6.4 0.00 0.00 0.00 92 1019.4
20260906070107 20 106 3.2 6.4 0.00 0.00 0.00 91 1019.4
20260906065606 20 105 3.2 6.4 0.00 0.00 0.00 91 1019.4
20260906065102 20 104 3.2 6.4 0.00 0.00 0.00 92 1019.4
20260906064558 20 102 3.2 6.4 0.00 0.00 0.00 92 1019.8
20260906064052 20 106 3.2 6.4 0.00 0.00 0.00 92 1019.4
20260906063547 20 132 1.6 4.8 0.00 0.00 0.00 92 1019.4
20260906063043 20 140 1.6 4.8 0.00 0.00 0.00 91 1019.4
20260906062539 20 140 3.2 8.0 0.00 0.00 0.00 91 1019.4
20260906062032 20 140 3.2 8.0 0.00 0.00 0.00 91 1019.4
20260906061529 20 153 1.6 4.8 0.00 0.00 0.00 91 1019.4
20260906061028 20 153 1.6 3.2 0.00 0.00 0.00 91 1019.4
20260906060525 21 153 1.6 3.2 0.00 0.00 0.00 91 1019.4
20260906060022 21 153 1.6 4.8 0.00 0.00 0.00 90 1019.4
20260906055517 21 153 1.6 4.8 0.00 0.00 0.00 90 1019.4
20260906055012 21 153 1.6 3.2 0.00 0.00 0.00 90 1019.4
20260906054507 21 153 1.6 8.0 0.00 0.00 0.00 90 1019.4
20260906054002 21 153 3.2 8.0 0.00 0.00 0.00 89 1019.4
20260906053459 21 153 3.2 4.8 0.00 0.00 0.00 89 1019.8
20260906052954 21 153 3.2 4.8 0.00 0.00 0.00 89 1019.4
20260906052450 21 153 3.2 4.8 0.00 0.00 0.00 89 1019.4
20260906051947 21 153 3.2 4.8 0.00 0.00 0.00 89 1019.4
20260906051442 21 153 3.2 4.8 0.00 0.00 0.00 89 1019.4
20260906050937 21 153 4.8 11.3 0.00 0.00 0.00 89 1019.4
20260906050437 21 156 6.4 14.5 0.00 0.00 0.00 89 1019.4
20260906045936 21 152 6.4 14.5 0.00 0.00 0.00 89 1019.1
20260906045435 21 161 4.8 9.7 0.00 0.00 0.00 89 1019.1
20260906044931 21 157 4.8 9.7 0.00 0.00 0.00 89 1019.1
20260906044426 21 155 3.2 8.0 0.00 0.00 0.00 89 1019.4
20260906043921 21 155 1.6 4.8 0.00 0.00 0.00 89 1019.1
20260906043417 21 155 3.2 8.0 0.00 0.00 0.00 89 1019.1
20260906042913 21 156 3.2 8.0 0.00 0.00 0.00 89 1019.1
20260906042411 21 156 3.2 8.0 0.00 0.00 0.00 89 1019.1
20260906041907 21 155 3.2 4.8 0.00 0.00 0.00 89 1019.1
20260906041403 21 155 3.2 8.0 0.00 0.00 0.00 89 1019.1
20260906040857 21 155 4.8 9.7 0.00 0.00 0.00 89 1019.1
20260906040352 21 156 4.8 9.7 0.00 0.00 0.00 89 1019.1
20260906035847 21 157 4.8 9.7 0.00 0.00 0.00 89 1019.1
20260906035343 21 157 6.4 11.3 0.00 0.00 0.00 89 1018.7
20260906034838 21 157 6.4 11.3 0.00 0.00 0.00 89 1018.7
20260906034333 21 158 6.4 9.7 0.00 0.00 0.00 89 1018.7
20260906033829 21 160 4.8 8.0 0.00 0.00 0.00 89 1018.7
20260906033328 21 160 1.6 6.4 0.00 0.00 0.00 88 1018.7
20260906032824 21 160 1.6 6.4 0.00 0.00 0.00 88 1019.1
20260906032320 21 160 0.0 1.6 0.00 0.00 0.00 88 1019.1
20260906031815 21 160 0.0 3.2 0.00 0.00 0.00 88 1019.1
20260906031311 22 160 1.6 3.2 0.00 0.00 0.00 87 1019.1
20260906030810 22 160 1.6 3.2 0.00 0.00 0.00 87 1018.7
20260906030305 22 160 1.6 3.2 0.00 0.00 0.00 87 1018.7
20260906025805 22 160 1.6 3.2 0.00 0.00 0.00 87 1018.7
20260906025259 22 160 0.0 3.2 0.00 0.00 0.00 87 1018.7
20260906024758 22 160 1.6 3.2 0.00 0.00 0.00 86 1018.7
20260906024257 22 160 1.6 6.4 0.00 0.00 0.00 86 1018.4
20260906023753 22 160 1.6 6.4 0.00 0.00 0.00 86 1018.4
20260906023248 22 160 1.6 3.2 0.00 0.00 0.00 86 1018.1
20260906022744 22 160 1.6 3.2 0.00 0.00 0.00 86 1018.1
20260906022239 22 160 3.2 6.4 0.00 0.00 0.00 85 1018.1
20260906021736 22 160 3.2 6.4 0.00 0.00 0.00 85 1017.6
20260906021234 23 160 3.2 6.4 0.00 0.00 0.00 85 1018.1
20260906020729 23 160 3.2 6.4 0.00 0.00 0.00 84 1017.6
20260906020223 23 160 3.2 6.4 0.00 0.00 0.00 84 1017.6
20260906015723 23 160 1.6 6.4 0.00 0.00 0.00 83 1017.6
20260906015222 23 160 1.6 6.4 0.00 0.00 0.00 83 1017.3
20260906014716 23 160 3.2 6.4 0.00 0.00 0.00 82 1017.3
20260906014212 23 160 3.2 9.7 0.00 0.00 0.00 82 1016.9
20260906013703 23 159 4.8 9.7 0.00 0.00 0.00 82 1016.9
20260906013203 23 159 6.4 9.7 0.00 0.00 0.00 81 1016.9
20260906012658 24 160 4.8 9.7 0.00 0.00 0.00 81 1016.9
20260906012157 24 159 6.4 11.3 0.00 0.00 0.00 81 1016.6
20260906011654 24 102 6.4 11.3 0.00 0.00 0.00 80 1016.6
20260906011148 24 120 4.8 11.3 0.00 0.00 0.00 80 1016.6
20260906010643 25 63 4.8 9.7 0.00 0.00 0.00 79 1016.6
20260906010140 25 105 4.8 9.7 0.00 0.00 0.00 79 1016.6
20260906005639 25 85 4.8 11.3 0.00 0.00 0.00 78 1016.6
20260906005138 25 112 4.8 11.3 0.00 0.00 0.00 78 1016.6
20260906004638 25 115 4.8 17.7 0.00 0.00 0.00 77 1016.6
20260906004133 25 99 6.4 17.7 0.00 0.00 0.00 77 1016.6
20260906003628 25 96 4.8 11.3 0.00 0.00 0.00 77 1016.6
20260906003124 25 113 6.4 12.9 0.00 0.00 0.00 76 1016.6
20260906002618 25 73 8.0 12.9 0.00 0.00 0.00 76 1016.6
20260906002114 25 107 8.0 16.1 0.00 0.00 0.00 75 1016.6
20260906001609 26 90 8.0 16.1 0.00 0.00 0.00 75 1016.6
20260906001109 26 92 8.0 17.7 0.00 0.00 0.00 74 1016.6
20260906000605 26 57 9.7 17.7 0.00 0.00 0.00 74 1016.6
20260906000100 26 61 9.7 17.7 0.00 0.00 0.00 74 1016.3
20260905235559 26 112 9.7 17.7 0.00 0.00 0.00 74 1016.6
20260905235054 26 113 9.7 19.3 0.00 0.00 0.00 74 1016.3
20260905234549 26 111 8.0 19.3 0.00 0.00 0.00 73 1016.6
20260905234045 26 107 8.0 14.5 0.00 0.00 0.00 73 1016.3
20260905233544 27 118 8.0 16.1 0.00 0.00 0.00 73 1016.6
20260905233044 27 71 8.0 16.1 0.00 0.00 0.00 72 1016.6
20260905232540 27 117 6.4 14.5 0.00 0.00 0.00 72 1016.3
20260905232035 27 110 8.0 17.7 0.00 0.00 0.00 71 1016.6
20260905231530 27 86 9.7 17.7 0.00 0.00 0.00 71 1016.6
20260905231027 27 53 9.7 17.7 0.00 0.00 0.00 71 1016.3
20260905230526 27 101 8.0 16.1 0.00 0.00 0.00 70 1016.3
20260905230024 27 105 6.4 17.7 0.00 0.00 0.00 70 1016.6
20260905225519 27 40 8.0 17.7 0.00 0.00 0.00 70 1016.6
20260905225015 27 59 9.7 17.7 0.00 0.00 0.00 69 1016.6
20260905224509 27 69 8.0 17.7 0.00 0.00 0.00 70 1016.3
20260905224009 27 102 9.7 16.1 0.00 0.00 0.00 69 1016.6
20260905223507 27 46 6.4 16.1 0.00 0.00 0.00 67 1016.6
20260905223002 27 41 6.4 11.3 0.00 0.00 0.00 68 1016.6
20260905222502 27 87 6.4 11.3 0.00 0.00 0.00 69 1016.6
20260905221957 27 72 6.4 11.3 0.00 0.00 0.00 70 1016.9
20260905221454 27 115 4.8 11.3 0.00 0.00 0.00 70 1016.6
20260905220949 27 95 3.2 9.7 0.00 0.00 0.00 70 1016.9
20260905220445 27 32 3.2 9.7 0.00 0.00 0.00 73 1016.9
20260905215944 27 286 3.2 9.7 0.00 0.00 0.00 74 1016.9
20260905215440 27 267 3.2 9.7 0.00 0.00 0.00 74 1016.9
20260905214937 27 216 3.2 6.4 0.00 0.00 0.00 73 1016.9
20260905214432 27 92 3.2 8.0 0.00 0.00 0.00 73 1016.9
20260905213932 27 157 3.2 8.0 0.00 0.00 0.00 71 1016.9
20260905213428 27 200 3.2 8.0 0.00 0.00 0.00 72 1016.9
20260905212923 27 217 3.2 6.4 0.00 0.00 0.00 72 1016.9
20260905212418 27 307 1.6 6.4 0.00 0.00 0.00 72 1017.3
20260905211917 27 351 3.2 8.0 0.00 0.00 0.00 71 1017.3
20260905211413 27 5 3.2 9.7 0.00 0.00 0.00 70 1016.9
20260905210909 27 355 3.2 9.7 0.00 0.00 0.00 72 1016.9
20260905210409 27 292 3.2 6.4 0.00 0.00 0.00 73 1016.9
20260905205908 27 236 3.2 8.0 0.00 0.00 0.00 73 1017.3
20260905205403 26 262 4.8 9.7 0.00 0.00 0.00 75 1017.3
20260905204902 26 279 3.2 9.7 0.00 0.00 0.00 75 1017.3
20260905204358 26 283 3.2 6.4 0.00 0.00 0.00 75 1017.3
20260905203857 26 344 1.6 6.4 0.00 0.00 0.00 75 1017.3
20260905203353 26 267 1.6 6.4 0.00 0.00 0.00 75 1017.3
20260905202848 26 248 3.2 6.4 0.00 0.00 0.00 75 1017.6
20260905202343 26 248 3.2 6.4 0.00 0.00 0.00 76 1017.3
20260905201839 26 248 4.8 11.3 0.00 0.00 0.00 78 1017.6
20260905201334 26 265 8.0 12.9 0.00 0.00 0.00 78 1017.6
20260905200834 26 287 8.0 14.5 0.00 0.00 0.00 77 1017.6
20260905200331 26 268 4.8 14.5 0.00 0.00 0.00 76 1018.1
20260905195828 26 248 3.2 11.3 0.00 0.00 0.00 75 1017.6
20260905195323 26 234 4.8 9.7 0.00 0.00 0.00 75 1017.6
20260905194819 26 288 6.4 11.3 0.00 0.00 0.00 74 1017.6
20260905194319 26 290 4.8 11.3 0.00 0.00 0.00 74 1017.6
20260905193818 26 291 4.8 11.3 0.00 0.00 0.00 75 1017.6
20260905193313 26 236 4.8 11.3 0.00 0.00 0.00 76 1017.6
20260905192808 26 268 3.2 9.7 0.00 0.00 0.00 76 1017.6
20260905192306 26 269 3.2 9.7 0.00 0.00 0.00 77 1017.6
20260905191804 26 315 1.6 6.4 0.00 0.00 0.00 77 1017.6
20260905191302 26 128 3.2 6.4 0.00 0.00 0.00 78 1017.6
20260905190801 26 128 3.2 6.4 0.00 0.00 0.00 77 1017.6
20260905190301 26 115 3.2 6.4 0.00 0.00 0.00 78 1017.6
20260905185800 26 126 3.2 6.4 0.00 0.00 0.00 78 1017.3
20260905185254 25 70 4.8 11.3 0.00 0.00 0.00 78 1017.6
20260905184748 26 68 4.8 11.3 0.00 0.00 0.00 77 1018.1
20260905184247 26 24 3.2 8.0 0.00 0.00 0.00 77 1018.1
20260905183741 26 129 1.6 4.8 0.00 0.00 0.00 77 1017.6
20260905183237 25 13 3.2 8.0 0.00 0.00 0.00 77 1018.1
20260905182736 25 14 3.2 8.0 0.00 0.00 0.00 78 1017.6
20260905182236 25 115 3.2 9.7 0.00 0.00 0.00 77 1018.1
20260905181732 25 125 3.2 9.7 0.00 0.00 0.00 78 1018.1
20260905181230 25 338 3.2 6.4 0.00 0.00 0.00 79 1018.1
20260905180725 25 30 3.2 6.4 0.00 0.00 0.00 79 1018.1
20260905180221 25 355 3.2 8.0 0.00 0.00 0.00 80 1018.1
20260905175721 25 90 4.8 9.7 0.00 0.00 0.00 80 1018.1
20260905175215 25 72 3.2 9.7 0.00 0.00 0.00 81 1018.1
20260905174710 25 64 3.2 9.7 0.00 0.00 0.00 81 1018.1
20260905174206 25 164 3.2 8.0 0.00 0.00 0.00 82 1018.4
20260905173703 25 90 4.8 11.3 0.00 0.00 0.00 83 1018.4
20260905173158 24 92 6.4 11.3 0.00 0.00 0.00 83 1018.4
20260905172657 24 100 6.4 11.3 0.00 0.00 0.00 84 1018.1
20260905172151 24 104 4.8 12.9 0.00 0.00 0.00 84 1018.4
20260905171647 23 155 4.8 12.9 0.00 0.00 0.00 84 1018.7
20260905171143 23 105 6.4 12.9 0.00 0.00 0.00 85 1018.7
20260905170640 23 157 4.8 12.9 0.00 0.00 0.00 86 1018.4
20260905170135 23 246 4.8 11.3 0.00 0.00 0.00 87 1018.4
20260905165635 23 161 6.4 12.9 0.00 0.00 0.00 88 1018.4
20260905165130 23 155 6.4 12.9 0.00 0.00 0.00 88 1018.4
20260905164625 23 154 3.2 8.0 0.00 0.00 0.00 88 1018.4
20260905164124 23 159 3.2 8.0 0.00 0.00 0.00 88 1018.4
20260905163621 22 159 3.2 8.0 0.00 0.00 0.00 88 1018.7
20260905163117 22 159 3.2 8.0 0.00 0.00 0.00 88 1018.7
20260905162613 22 159 3.2 8.0 0.00 0.00 0.00 88 1018.7
20260905162112 22 150 4.8 11.3 0.00 0.00 0.00 88 1018.7
20260905161611 22 113 6.4 11.3 0.00 0.00 0.00 88 1018.7
20260905161109 22 155 4.8 11.3 0.00 0.00 0.00 88 1018.4
20260905160609 22 157 4.8 11.3 0.00 0.00 0.00 89 1018.7
20260905155557 22 161 3.2 11.3 0.00 0.00 0.00 89 1018.7
20260905155056 22 117 3.2 6.4 0.00 0.00 0.00 89 1018.4
20260905154551 22 140 3.2 9.7 0.00 0.00 0.00 89 1018.7
20260905154047 22 138 3.2 11.3 0.00 0.00 0.00 90 1018.7
20260905153542 22 126 6.4 16.1 0.00 0.00 0.00 90 1018.7
20260905153043 22 43 6.4 16.1 0.00 0.00 0.00 90 1018.4
20260905152537 22 124 6.4 12.9 0.00 0.00 0.00 90 1018.4
20260905152032 22 100 6.4 11.3 0.00 0.00 0.00 91 1018.4
20260905151527 22 106 6.4 11.3 0.00 0.00 0.00 91 1018.1
20260905151023 22 60 4.8 11.3 0.00 0.00 0.00 91 1018.1
20260905150518 22 84 6.4 11.3 0.00 0.00 0.00 91 1018.1
20260905150015 22 103 6.4 11.3 0.00 0.00 0.00 91 1017.6
20260905145509 22 52 6.4 11.3 0.00 0.00 0.00 91 1018.1
20260905145009 22 126 6.4 11.3 0.00 0.00 0.00 91 1017.6
20260905144504 22 81 4.8 11.3 0.00 0.00 0.00 91 1018.1
20260905144003 22 93 4.8 9.7 0.00 0.00 0.00 92 1018.1
20260905143502 22 62 4.8 12.9 0.00 0.00 0.00 92 1018.1
20260905142957 22 76 6.4 12.9 0.00 0.00 0.00 92 1018.1
20260905142455 22 96 4.8 12.9 0.00 0.00 0.00 92 1018.1
20260905141951 22 102 6.4 12.9 0.00 0.00 0.00 92 1018.1
20260905141446 22 71 8.0 14.5 0.00 0.00 0.00 92 1017.6
20260905140942 22 103 8.0 14.5 0.00 0.00 0.00 92 1017.6
20260905140437 22 93 8.0 14.5 0.00 0.00 0.00 92 1017.6
20260905135936 22 111 6.4 14.5 0.00 0.00 0.00 92 1017.3
20260905135432 22 57 4.8 11.3 0.00 0.00 0.00 92 1017.3